AddedLatest Added eBooks:

  1. 2020-10-09Bad President 2020 WEB-DL XviD AC3-FGT
  2. 2020-10-09Cagefighter 2020 1080p WEBRip x264-RARBG
  3. 2020-10-09Charm City Kings 2020 1080p WEBRip x265-RARBG
  4. 2020-10-09Faith Based 2020 1080p WEBRip x264-RARBG
  5. 2020-10-09From the Vine 2019 1080p WEBRip x264-RARBG
  6. 2020-10-09Hubie Halloween 2020 1080p NF WEB-DL x264-MeM
  7. 2020-10-09The Forty-Year-Old Version 2020 1080p WEBRip x265-RARBG
  8. 2020-10-09New Opportunities and Challenges in Occupational Safety and Health Management
  9. 2020-10-09The Girl Next Door UNRATED 2004 1080p BrRip x264 WOW
  10. 2020-10-09Cagefighter 2020 720p WEBRip x264-GalaxyRG
  11. 2020-10-09Faith Based 2020 1080p WEB-DL DD5 1 HEVC x265-RTM
  12. 2020-10-09From the Vine 2019 1080p WEB-DL DD5 1 HEVC x265-RTM
  13. 2020-10-09Hubie Halloween 2020 WebRip 720p AAC x264 [Telly]
  14. 2020-10-09The Cleaning Lady 2018 1080p WEBRip x264-YTS
  15. 2020-10-09The Forty-Year-Old Version 2020 WEBRip XviD MP3-XVID
  16. 2020-10-09San Francisco Chronicle - Year 156 Vol. 248 [20 Sep 2020]
  17. 2020-10-09The Wolf Of Snow Hollow 2020 WEB-DL XviD MP3-FGT
  18. 2020-10-09To Hell with Harvey 2019 1080p WEB-DL HEVC x265-RTM
  19. 2020-10-09Scrumptious Keto Chaffle Cookbook: Enjoy Carb Free Waffles for Improved Health and Weight Loss
  20. 2020-10-09A Star Is Born 2018 720p WEBRip x264-WOW
  21. 2020-10-09An Imperfect Murder 2017 1080p WEBRip x264-RARBG
  22. 2020-10-09Being Frank 2018 1080p WEBRip x265-RARBG
  23. 2020-10-09Broil 2020 720p BluRay x264 AAC-YTS
  24. 2020-10-09Cagefighter 2020 1080p WEBRip x264 AAC5 1-YTS
  25. 2020-10-09Faith Based 2020 WEB-DL XviD MP3-FGT
  26. 2020-10-09Hot Summer Nights 2017 720p WEBRip x264-WOW
  27. 2020-10-09The Forty Year Old Version 2020 720p WEB-DL HEVC x265-RTM
  28. 2020-10-09The Forty-Year-Old Version 2020 WEBRip x264-ION10
  29. 2020-10-09The Lie 2018 720p WEBRip x264 AAC-YTS
  30. 2020-10-09To Hell with Harvey 2019 1080p WEBRip x264-RARBG
  31. 2020-10-09Bad President 2020 720p WEBRip x264-GalaxyRG
  32. 2020-10-09Cagefighter 2020 720p WEB-DL XviD AC3-FGT
  33. 2020-10-09Faith Based 2020 720p WEBRip x264-GalaxyRG
  34. 2020-10-09From The Vine 2019 720p WEBRip x264 AAC-YTS
  35. 2020-10-09Hubie Halloween (2020) AC3 5 1 ITA ENG 1080p H265-Sp33dy94
  36. 2020-10-09The Forty Year Old Version 2020 1080p WEB-DL HEVC x265-RTM
  37. 2020-10-09To Hell With Harvey 2019 1080p WEBRip x264 AAC-YTS
  38. 2020-10-09All Roads to Pearla 2019 720p WEB-DL Dual-Audio x264-1XBET
  39. 2020-10-09An Imperfect Murder 2017 WEB-DL XviD AC3-FGT
  40. 2020-10-09Cagefighter 2020 1080p WEB-DL DD5 1 HEVC x265-RTM
  41. 2020-10-09From the Vine 2019 WEB-DL XviD MP3-FGT
  42. 2020-10-09Sunday Express [2020.09.20]
  43. 2020-10-09Statistical Foundations of Data Science
  44. 2020-10-09Show Stopping Ozark Recipes: From the Midwest to Mexico, Discover how to Dine like the Byrdes!
  45. 2020-10-09Nala's World: One Man, His Rescue Cat, and a Bike Ride around the Globe
  46. 2020-10-09Jimmy Fallon 2020 10 08 Eddie Redmayne 720p HEVC x265-MeGusta
  47. 2020-10-09Country at Heart 2020 720p HDRip x264-GalaxyRG
  48. 2020-10-09Cagefighter 2020 WEB-DL XviD AC3-FGT
  49. 2020-10-09From The Vine 2019 1080p WEBRip x264 AAC5 1-YTS
  50. 2020-10-09Soup Cravings Satisfied: Quick Soup Recipes You Can Make Anytime
  51. 2020-10-09The Battle of Cuito Cuanavale: Cold War Angolan Finale, 1987 1988 ([email protected])
  52. 2020-10-09SIMPLIFIED MICROSOFT POWERPOINT GUIDE:: A Detailed Guide to Microsoft PowerPoint for Beginners and Professionals
  53. 2020-10-09Books of Blood 2020 720p HULU WEBRip 2.0 X 264-EVO
  54. 2020-10-09Recent Advancement in Prodrugs
  55. 2020-10-09Come Undone 2010 BluRay 720p x264 WOW
  56. 2020-10-09The Cleaning Lady 2018 720p BluRay x264 AAC-YTS
  57. 2020-10-09The Forty-Year-Old Version 2020 720p NF WEBRip x264-GalaxyRG
  58. 2020-10-09The Lie 2018 1080p WEBRip x264 AAC5 1-YTS
  59. 2020-10-09The Wolf Of Snow Hollow 2020 1080p WEBRip x264 AAC5 1-YTS
  60. 2020-10-09Bad President 2020 720p WEB-DL XviD AC3-FGT
  61. 2020-10-09Faith Based 2020 1080p WEB-DL DD5 1 H 264-EVO
  62. 2020-10-09From the Vine 2020 1080p WEB-DL DD5 1 H 264-EVO
  63. 2020-10-09To Hell with Harvey 2020 1080p WEB-DL DD2 0 H 264-EVO
  64. 2020-10-09A Simple Favor 2018 720p BluRay x264-WOW
  65. 2020-10-09Quantum Memory Power: Learn to Improve Your Memory With the World Memory Champion!
  66. 2020-10-09Hubie Halloween (2020) ITA Ac3 5 1 WebRip 1080p H264 [ArMor]
  67. 2020-10-09Black Box 2020 1080p AMZN WEBRip 5.1 X 264-EVO
  68. 2020-10-09365 Days 2020 720p WEB x264 WOW
  69. 2020-10-09An Imperfect Murder 2020 1080p WEB-DL DD5 1 H 264-EVO
  70. 2020-10-09Batman Death In The Family 2020 1080p BluRay x264 AAC5 1-YTS
  71. 2020-10-09Broil 2020 1080p BluRay x264 AAC5 1-YTS
  72. 2020-10-09Cagefighter 2020 1080p WEB-DL DD5 1 H 264-EVO
  73. 2020-10-09A White White Day 2019 720p BluRay x264-SCARE
  74. 2020-10-09Hard Kill 2020 BluRay 1080p H264 Ita Eng AC3 5 1 MIRCrew - Removed
  75. 2020-10-09Iron Sky 2 The Coming Race (2019) AC3 5 1 ITA ENG 1080p H265 Sp33dy94
  76. 2020-10-09Pharmaceutical Biocatalysis: Chemoenzymatic Synthesis of Active Pharmaceutical Ingredients
  77. 2020-10-09The Boston Globe - Vol. 298 No. 076 [14 Sep 2020]
  78. 2020-10-09Scaling Limits in Statistical Mechanics and Microstructures in Continuum Mechanics
  79. 2020-10-09Probability with R, 2nd Edition (EPUB)
  80. 2020-10-09Pre Harvest and Post Harvest Food Safety: Contemporary Issues and Future Directions
  81. 2020-10-09Single Case Methods in Clinical Psychology: A Practical Guide
  82. 2020-10-09Three Secret Ways to Protect Yourself From Lawsuits
  83. 2020-10-09The Arsonist: A Mind on Fire, 2020 Edition
  84. 2020-10-09The Boston Globe - Vol. 298 No. 088 [26 Sep 2020]
  85. 2020-10-09Peach Jam Cookbook: Peach Jams and Preserves Book with Delicious Artisan Homemade Peach Recipes for the Whole Family
  86. 2020-10-09Paula Scher: Twenty Five Years at the Public: A Love Story
  87. 2020-10-09Smart Urban Mobility: Law, Regulation, and Policy
  88. 2020-10-09Signals, Systems, Transforms, and Digital Signal Processing with MATLAB (Instructor Resources)
  89. 2020-10-09Polymer Optical Fiber Bragg Gratings: Fabrication and Sensing Applications
  90. 2020-10-09Nelson English: Year 1/Primary 2: Workbook 1
  91. 2020-10-09Orion: The Connection between Heaven and Earth
  92. 2020-10-09A White White Day 2019 1080p BluRay x264-SCARE
  93. 2020-10-09The Boston Globe - Vol. 298 No. 062 [31 Aug 2020]
  94. 2020-10-09Strength Training (4 Books in 1): Muscle Building Muscle Relaxation Vegan Diet Vegan Nutrition for Bodybuilding
  95. 2020-10-09Alomoves - Return Home
  96. 2020-10-09The Bradshaw Bunch S01E05 720p HEVC x265-MeGusta
  97. 2020-10-09Science - September 18, 2020 USA
  98. 2020-10-09Ginny Weds Sunny 2020 1080p WEB-DL MULTi DD 5 1 h264-LB
  99. 2020-10-09Strong Coupling Gauge Theories in the LHC Perspective

More eBooks ...

46277 pages, 4627696 eBooks in total, list all pages->

Search free ebooks in ebookee.com!
Back to Top